Regional Weather Roundup
Issued by NWS Burlington, VT

Home | Current Version | Previous Version | Text Only | Print | Product List | Glossary On
Versions: 1 2 3 4 5 6 7 8 9 10 11 12 13 14 15 16 17 18 19 20 21 22 23 24 25 26 27 28 29 30 31 32 33 34 35 36 37 38 39 40 41 42 43 44 45 46 47 48 49 50
000
ASUS41 KBTV 292330
RWRBTV
VERMONT REGIONAL WEATHER ROUNDUP
NATIONAL WEATHER SERVICE BURLINGTON VT
700 PM EDT TUE JUL 29 2014

NOTE: "FAIR" INDICATES FEW OR NO CLOUDS BELOW 12,000 FEET WITH NO
SIGNIFICANT WEATHER AND/OR OBSTRUCTIONS TO VISIBILITY.

* THESE REPORTS ARE NOT UNDER NWS QUALITY CONTROL AND/OR DO NOT
  REPORT WEATHER SUCH AS PRECIPITATION AND FOG.

VTZ001>019-300000-
_____VERMONT_____


CITY           SKY/WX    TMP DP  RH WIND       PRES   REMARKS
BURLINGTON     MOCLDY    68  52  56 NE7       29.92R
MONTPELIER     CLEAR     64  50  60 NW3       29.97R
MORRISVILLE    CLEAR     65  53  65 NW5       29.94R
ST. JOHNSBURY*   N/A     67  49  52 MISG      29.91R
LYNDONVILLE*     N/A    N/A N/A N/A MISG        N/A
MIDDLEBURY*    CLOUDY    64  62  91 CALM      29.92R
RUTLAND*       CLEAR     66  55  68 CALM      29.92R
SPRINGFIELD    CLOUDY    70  55  59 CALM      29.91R
HIGHGATE*      FAIR      64  56  75 CALM      29.92R
NEWPORT*       MOCLDY   N/A N/A N/A CALM      29.95R
BENNINGTON     CLOUDY    67  54  63 SW3       29.93R
GALLUP MILLS*    N/A     46 N/A N/A MISG        N/A
UNION VILLAGE*   N/A     66 N/A N/A MISG        N/A
MT. MANSFIELD*   N/A     50 N/A N/A NW6         N/A

_____LAKE CHAMPLAIN_____


CITY           SKY/WX    TMP DP  RH WIND       PRES   REMARKS
COLCHESTER RF*   N/A     68  52  56 NE8         N/A
DIAMOND ISL*     N/A     68  54  60 N7          N/A

$$

NYZ007-026>031-035-052-083-300000-
_____NORTHERN NEW YORK_____


CITY           SKY/WX    TMP DP  RH WIND       PRES   REMARKS
PLATTSBURGH    PTCLDY    69  51  52 N5        29.91R
SARANAC LAKE   CLOUDY    61  49  64 CALM      29.94R
MASSENA        PTCLDY    68  53  58 SW5       29.91R
OGDENSBURG*    CLEAR     66  57  72 SW6       29.92R
POTSDAM*       PTCLDY    66  57  72 CALM      29.93R
PARISHVILLE*     N/A     61 N/A N/A CALM        N/A
WATERTOWN      CLEAR     67  50  54 SW9       29.93S
FT DRUM        PTCLDY    65  53  63 W8        29.94R
ALBANY         MOCLDY    71  52  50 W8        29.92R
GLENS FALLS    CLOUDY    69  60  73 CALM      29.90R

$$
NHZ002-005-011-300000-
_____NEW HAMPSHIRE_____


CITY           SKY/WX    TMP DP  RH WIND       PRES   REMARKS
LEBANON        MOCLDY    70  54  56 NE3       29.90R
KEENE          CLEAR     66  54  63 CALM      29.92R
MT WASHINGTON  FOG       43  43 100 W8          N/A  VSB 1/16
PLYMOUTH       FAIR      67  55  63 CALM      29.91R
WHITEFIELD     CLEAR     66  52  60 NW3       29.92R

$$

_____REGIONAL QUEBEC LOCATIONS_____


CITY           SKY/WX    TMP DP  RH WIND       PRES   REMARKS
MONTREAL       PTCLDY    70  50  49 W7        29.89R
QUEBEC CITY    PTCLDY    68  55  64 SW8       29.85R
SHERBROOKE     MOCLDY    63  54  72 SW3       29.92R

_____REGIONAL ONTARIO LOCATIONS_____


CITY           SKY/WX    TMP DP  RH WIND       PRES   REMARKS
OTTAWA         MOCLDY    68  52  56 SW7       29.90R

______KEY______
VSB  - VISIBILITY IN MILES
WCI  - WIND CHILL INDEX
HX   - HEAT INDEX
$$
NNNN


USA.gov is the U.S. government's official web portal to all federal, state and local government web resources and services.